Regional Weather Roundup
Issued by NWS

Home | Current Version | Previous Version | Graphics & Text | Print | Product List | Glossary On
Versions: 1 2 3 4 5 6 7 8 9 10 11 12 13 14 15 16 17 18 19 20 21 22 23 24 25 26 27 28 29 30 31 32 33 34 35 36 37 38 39 40 41 42 43 44 45 46 47 48 49 50
000
ASUS43 KMKX 130559
RWRWI

WISCONSIN REGIONAL WEATHER ROUNDUP
NATIONAL WEATHER SERVICE MILWAUKEE/SULLIVAN WI
1200 AM CST SAT FEB 13 2016

NOTE: "FAIR" INDICATES FEW OR NO CLOUDS BELOW 12,000 FEET WITH NO
SIGNIFICANT WEATHER AND/OR OBSTRUCTIONS TO VISIBILITY.

WIZ001-002-006>008-014>016-023>028-130700-
NORTHWEST WISCONSIN

CITY           SKY/WX    TMP DP  RH WIND       PRES   REMARKS
SUPERIOR ARPT  MOCLDY    -4 -16  56 NW8       30.60R WCI -19
ASHLAND        CLOUDY    -3  -9  75 NW7       30.53S HAZE    WCI -16
6HR MIN TEMP:  -4; 6HR MAX TEMP:   1;

HAYWARD        CLOUDY    -6 -18  56 CALM      30.51R
6HR MIN TEMP:  -6; 6HR MAX TEMP:   1;

SIREN          CLOUDY    -4 -17  54 NW6       30.58R WCI -17
CUMBERLAND     CLOUDY    -4 -18  50 NW12      30.52R WCI -22
RICE LAKE      CLOUDY    -3 -16  53 NW9       30.54R WCI -19
CHETEK         CLOUDY    -3 -16  55 NW6       30.53R WCI -16
LADYSMITH      CLOUDY    -5 -18  53 NW7       30.50R WCI -19
6HR MIN TEMP:  -5; 6HR MAX TEMP:   2;

EAU CLAIRE     NOT AVBL
MENOMONIE      CLOUDY     0 -15  50 NW10      30.56R WCI -17
6HR MIN TEMP:   0; 6HR MAX TEMP:   6;

NEW RICHMOND   CLOUDY    -3 -15  56 NW7       30.58R WCI -17
OSCEOLA        CLOUDY     0 -14  53 NW7       30.62R WCI -13
$$

WIZ003>005-009-010-017-018-130700-
NORTH CENTRAL WISCONSIN

CITY           SKY/WX    TMP DP  RH WIND       PRES   REMARKS
MANITOWISH WTR CLOUDY    -5 -10  78 NW9       30.35R WCI -22
ARBOR VITAE    CLEAR     -4 -10  75 NW6       30.34S WCI -16
WOODRUFF       CLEAR     -4 -10  75 NW6       30.34S WCI -16
RHINELANDER    CLEAR     -7 -15  68 W9        30.34S WCI -24
6HR MIN TEMP:  -7; 6HR MAX TEMP:  -3;

EAGLE RIVER    CLEAR     -5 -11  75 W6        30.32S WCI -18
LAND O LAKES   CLEAR     -1  -6  80 NW7       30.32R WCI -15
PHILLIPS       CLOUDY    -8 -17  67 CALM      30.41R
TOMAHAWK       CLEAR     -7 -16  65 W7        30.39R WCI -21
MEDFORD        CLEAR     -6 -18  56 NW8       30.41R WCI -21
MERRILL        CLEAR    N/A N/A N/A NW8       30.41S
$$

WIZ029-030-035-036-043>047-130700-
CENTRAL WISCONSIN

CITY           SKY/WX    TMP DP  RH WIND       PRES   REMARKS
WAUSAU         CLEAR     -2 -15  54 NW9       30.41R WCI -18
6HR MIN TEMP:  -2; 6HR MAX TEMP:   3;

MOSINEE        CLEAR     -4 -15  59 CALM      30.43R
MARSHFIELD     CLEAR     -3 -19  46 NW10      30.44R WCI -20
6HR MIN TEMP:  -4; 6HR MAX TEMP:   3;

STEVENS POINT  CLEAR     -4 -17  52 NW7       30.45S WCI -17
WAUPACA        CLEAR      1 -14  48 W6        30.47R WCI -10
WAUTOMA        NOT AVBL
WISC RAPIDS    CLEAR     -3 -17  51 NW7       30.49R WCI -16
6HR MIN TEMP:  -3; 6HR MAX TEMP:   5;

CAMP DOUGLAS   CLOUDY    -5 -16  59 W9        30.51R WCI -22
6HR MIN TEMP:  -6; 6HR MAX TEMP:   6;

$$

WIZ011>013-019>022-031-037>040-048>050-130700-
NORTHEAST WISCONSIN

CITY           SKY/WX    TMP DP  RH WIND       PRES   REMARKS
ANTIGO         CLEAR     -5 -13  67 NW12G18   30.35R WCI -23
SHAWANO        PTCLDY     1 -12  55 W6        30.44R WCI -11
OCONTO         CLEAR     -2 -12  63 W7        30.44R WCI -16
STURGEON BAY   CLEAR      0 -11  60 W10       30.41S WCI -17
6HR MIN TEMP:   0; 6HR MAX TEMP:   3;

GREEN BAY      CLEAR     -1 -12  59 W12       30.45R WCI -18
6HR MIN TEMP:  -2; 6HR MAX TEMP:   5;

MANITOWOC      NOT AVBL
APPLETON       CLEAR      0 -15  50 W14       30.42S WCI -19
CLINTONVILLE   CLEAR      0 -13  55 W7        30.45R WCI -13
OSHKOSH        CLEAR     -1 -13  56 W9        30.45S WCI -16
6HR MIN TEMP:  -1; 6HR MAX TEMP:   8;

$$

WIZ032>034-041-042-053>061-130700-
SOUTHWEST WISCONSIN

CITY           SKY/WX    TMP DP  RH WIND       PRES   REMARKS
LA CROSSE      CLOUDY    -1 -13  56 NW7       30.58R WCI -14
6HR MIN TEMP:  -1; 6HR MAX TEMP:   8;

SPARTA         CLOUDY     0 -13  52 W6        30.54R WCI -11
VIROQUA        CLOUDY    -2 -14  57 NW8       30.49R WCI -17
BOSCOBEL       CLOUDY     1 -11  57 CALM      30.57R
6HR MIN TEMP:   0; 6HR MAX TEMP:  13;

PRAIRIE DU CHI CLOUDY     3 -11  51 W8        30.57S WCI -10
PLATTEVILLE    CLEAR      4  -9  54 NW5       30.51R WCI  -6
$$

WIZ056-057-062-063-064-067-068-130700-
SOUTH CENTRAL WISCONSIN

CITY           SKY/WX    TMP DP  RH WIND       PRES   REMARKS
REEDSBURG      CLEAR      1 -14  49 NW3       30.51R
BARABOO/DELLS  CLEAR      1 -17  43 NW6       30.49R WCI -11
LONE ROCK      NOT AVBL
MINERAL POINT  CLEAR      5 -13  43 NW7       30.49R WCI  -7
MADISON        CLEAR      2 -14  47 NW8       30.50R WCI -12
6HR MIN TEMP:   2; 6HR MAX TEMP:  10;

MIDDLETON      CLEAR      3 -10  54 NW8       30.50R WCI -11
WATERTOWN      CLEAR      2 -10  57 NW8       30.48R WCI -11
MONROE         CLEAR      5  -9  51 NW9       30.48R WCI  -9
JANESVILLE     CLEAR      9  -9  43 N12G20    30.50R WCI  -6
$$

WIZ051-052-058>065-066-070>072-130700-
SOUTHEAST WISCONSIN

CITY           SKY/WX    TMP DP  RH WIND       PRES   REMARKS
MILWAUKEE      CLEAR      3 -13  47 NW13G21   30.47R WCI -14
6HR MIN TEMP:   3; 6HR MAX TEMP:  12;

WAUKESHA       CLEAR      1 -13  51 NW12      30.47R WCI -15
MILWAUKEE/TIMM CLEAR      3 -13  47 NW12G21   30.47R WCI -13
RACINE         CLEAR      4 -13  45 NW15G21   30.48R WCI -14
6HR MIN TEMP:   4; 6HR MAX TEMP:  12;

BURLINGTON     CLEAR      2 -13  50 N10       30.48R WCI -14
KENOSHA        CLEAR      4 -11  50 NW16      30.47R WCI -15
6HR MIN TEMP:   4; 6HR MAX TEMP:  13;

FOND DU LAC    MIX PCPN   0 -12  57 W9        30.46S WCI -15
6HR MIN TEMP:   0; 6HR MAX TEMP:   9; 6HR PCP: TRACE;

SHEBOYGAN      CLEAR      1 -12  54 NW9       30.44R WCI -14
6HR MIN TEMP:   1; 6HR MAX TEMP:   8;

WEST BEND      CLEAR      1 -13  51 NW7       30.44S WCI -11
JUNEAU         CLEAR      0 -11  59 W3        30.47S
$$

LSZ147-162-130700-
LAKE SUPERIOR

STATION/POSITION TIME  TEMP    WIND        PRES    WAVE
                       AIR SEA DIR/SP/G            HT/PER
                 (UTC) (F)     (DEG/KT/KT) (MB)    (FT/S)
DEVILS ISLAND    0500    1     330/ 24/ 26 1035.3F
SAXON HARBOR     0500    3                 1032.2F
$$

LMZ867-665-643>646-130700-
LAKE MICHIGAN

STATION/POSITION TIME  TEMP    WIND        PRES    WAVE
                       AIR SEA DIR/SP/G            HT/PER
                 (UTC) (F)     (DEG/KT/KT) (MB)    (FT/S)
CHAMBERS ISLAND  0500    1     260/  8/ 15 1029.1R
SISTER BAY       0420    2     330/ 24/ 28   N/A
ALGOMA LAKESHORE 0426          330/  6/  9   N/A
KEWAUNEE LAKESHO 0400    2     310/ 10/ 15 1028.6R
SHEBOYGAN LAKESH 0500    3     300/ 13/ 15 1032.7R
PORT WASHINGTON  0500    4     310/  7/ 14 1032.2
MILWAUKEE LAKESH 0510    6     310/ 10/ 15   N/A
KENOSHA   LAKESH 0500    7     330/ 17/ 20 1030.8R
$$

TC  - TEMPERATURE IN CELSIUS
VSB - VISIBILITY IN STATUTE MILES
WCI - WIND CHILL INDEX
HX  - HEAT INDEX




USA.gov is the U.S. government's official web portal to all federal, state and local government web resources and services.